www.pogodaiklimat.ru

Погода и климат >> Архив погоды >> Россия >> Ханты-Мансийский АО >> Леуши


ПОГОДА в Леушах

  • Прогноз погоды в Леушах
  • Монитор погоды в Леушах
  • Климат города

АРХИВ ПОГОДЫ в Леушах

Время (UTC), дата Ветер
(напр.,м/с)
 
Видим.   Явления Облачность Т
(С)
Тd
(С)
f
(%)
Тe
(С)
Тes
(С)
Комфортность P
(гПа)
Po
(гПа)
Тmin
(С)
Tmax
(С)
R
(мм)
R24
(мм)
S
(см)
18 18.05 Ю 1 20 км 3/0
[Ci fib]
+0.2 -7.5 56 -1 -1 1024.2 1015.3
21 18.05 Ю 1 20 км ясно -1.8 -7.6 65 -4 -4 1024.4 1015.4
00 19.05 Ю 1 50 км 10/0
[Ci fib]
-1.5 -6.8 67 -3 -3 1025.2 1016.2
03 19.05 Ю 1 50 км 10/0
[Ci]
+6.2 -8.5 34 +6 +11 1024.4 1015.7 -2.8
06 19.05 Ю 3 50 км 8/0
[Ci fib]
+10.1 -8.6 26 +9 +17 1022.2 1013.6
09 19.05 Ю 5
{10}
50 км 3/0
[Ci fib]
+12.8 -7.6 23 +11 +17 1019.9 1011.4
12 19.05 Ю 4 50 км 10/0
[Ci sp]
+13.7 -6.2 25 +13 +16 1017.8 1009.4
15 19.05 Ю 3 50 км 10/10 600 м
[Sc]
+11.7 -6.7 27 +11 +11 1016.2 1007.7 +14.2
18 19.05 Ю 4 20 км 10/10 600 м
[Sc]
+8.7 -3.5 42 +6 +6 1014.6 1006.0
21 19.05 Ю 3 н/о н/о +7.8 -1.1 53 +6 +6 1011.2 1002.7
00 20.05 Ю 3 10 км слабый снег 10/0 300 м
[As op]
+5.1 +4.1 93 +2 +2 1009.1 1000.5
03 20.05 Ю 3 50 км {снег} 10/5 600 м
[Sc As trans]
+8.8 +5.5 80 +6 +7 1006.1 997.7 +5.0 8
06 20.05 Ю 2 50 км 9/6 600 м
[Sc Ac cast]
+18.2 +8.9 55 +19 +21 1003.9 995.7
09 20.05 ЮЗ 3 50 км 10/8 1000 м
[Cu hum Ci fib]
+25.4 +8.9 35 +26 +28 жарко 1002.0 994.0
12 20.05 З 4-10
{15}
4000 м гроза, ливневой дождь 10/10 600 м
[Cb calv]
+16.3 +11.6 74 +16 +16 1003.3 995.1
15 20.05 ЮЗ 2
{11}
50 км {гроза, ливн. осадки} 10/8 600 м
[Cb cap Ac trans Cc]
+18.0 +10.9 63 +19 +19 1001.3 993.1 +26.3 2
18 20.05 З 3 20 км {гроза, ливн. осадки} 8/8 600 м
[Sc]
+18.0 +10.9 63 +18 +18 1001.3 994.5
21 20.05 СЗ 8-13
{13}
20 км 10/10
[Sc]
+8.7 +6.1 84 +4 +4 1006.9 998.4
00 21.05 СЗ 8-12
{13}
50 км 10/10 600 м
[Sc]
+7.6 +4.3 80 +3 +3 1009.8 1001.3
03 21.05 СЗ 8-12
{13}
50 км 10/10 600 м
[Sc]
+6.2 +2.7 78 +1 +1 1013.2 1004.6 +6.2
06 21.05 СЗ 6
{12}
50 км 10/10 600 м
[Sc]
+5.7 +2.1 78 +1 +1 1016.6 1007.9 +5.3
09 21.05 СЗ 5 50 км 10/10 600 м
[Sc]
+7.4 +2.4 71 +4 +4 1018.3 1009.7
12 21.05 СЗ 5 50 км 10/10 600 м
[Sc]
+8.7 +2.3 64 +5 +5 1019.6 1011.0
15 21.05 С 2 50 км 5/0
[Cc]
+9.9 +0.5 52 +9 +9 1019.3 1010.7 +10.4
18 21.05 ЮЗ 1 20 км 3/0
[Ci fib]
+6.0 -0.7 62 +5 +5 1019.4 1010.7
21 21.05 ЮЗ 1 20 км 3/0
[Ci fib]
+3.2 -0.3 78 +2 +2 1017.6 1008.9
00 22.05 ЮЗ 2 50 км 10/0
[Cc]
+4.1 -0.6 71 +2 +2 1015.6 1006.9
03 22.05 З 3 50 км 10/8 600 м
[Sc Ac As]
+8.9 +0.8 57 +7 +7 1012.1 1003.5 +2.9
06 22.05 З 2 4000 м слабый дождь 10/0 300 м
[As op]
+9.6 +5.5 76 +8 +11 1007.9 999.5
09 22.05 СЗ 10-15
{16}
50 км в посл. час ливневой дождь 5/4 600 м
[Cb cap Cc]
+10.8 +5.5 70 +7 +7 1008.6 1000.2
12 22.05 С 8-12
{23}
50 км {ливн. осадки, дождь} 8/6 600 м
[Cb cap Ac trans Ci fib]
+11.2 +0.6 48 +8 +8 1012.3 1003.9
15 22.05 СЗ 9-16
{16}
50 км 10/8 600 м
[Sc Ac cast Cs]
+10.9 -2.6 39 +8 +8 1015.4 1006.9 +12.9 0.3
18 22.05 СЗ 8-12
{16}
20 км 3/3 600 м
[Sc Cs]
+8.6 -2.7 45 +5 +5 1018.6 1010.1
21 22.05 СЗ 7
{12}
20 км 3/1 600 м
[Sc diur, vesp Cs]
+6.1 -2.2 55 +2 +2 1020.9 1012.2
00 23.05 СЗ 6
{12}
50 км ясно +4.7 -2.6 59 0 0 1023.0 1014.3
03 23.05 С 5
{12}
50 км 1/1 1000 м
[Cu hum]
+7.7 -2.0 50 +4 +7 1024.2 1015.5 +4.5
06 23.05 СЗ 6-10
{13}
50 км 3/3 1000 м
[Cu hum]
+11.1 -2.6 38 +9 +12 1024.3 1015.7
09 23.05 СЗ 4
{10}
50 км 3/0
[Cc]
+14.2 -3.8 29 +13 +21 1022.8 1014.3
12 23.05 СЗ 4 50 км 10/0
[Ac trans Cc]
+16.2 -4.3 24 +16 +18 1020.6 1012.2
15 23.05 штиль 0 50 км 10/10 600 м
[Sc]
+14.0 -2.3 32 +14 +14 1017.8 1009.4 +16.7
18 23.05 Ю 3 4000 м слабый дождь 10/0 300 м
[As op]
+12.4 -1.8 37 +11 +11 1014.8 1006.4
21 23.05 Ю 3 20 км {дождь} 10/10 600 м
[Sc]
+12.6 -2.0 36 +12 +12 1009.3 1000.9
00 24.05 Ю 1 50 км {дождь} 10/10 600 м
[Sc]
+12.2 +0.7 45 +13 +13 1006.2 997.8
03 24.05 ЮЗ 2 4000 м слабый дождь 10/10 600 м
[Sc]
+14.8 +5.9 55 +15 +15 1004.6 996.4 +10.5 0.0
06 24.05 З 2
{11}
10 км слабый дождь 10/10 600 м
[Sc]
+16.8 +9.7 63 +17 +17 1003.8 995.5
09 24.05 С 6
{12}
4000 м слабый дождь 10/0
[As op]
+12.6 +9.0 79 +10 +11 1005.0 996.7
12 24.05 СЗ 6-10
{12}
50 км {дождь} 10/10 600 м
[Sc]
+11.8 +6.7 71 +9 +9 1007.9 999.5
15 24.05 С 4
{11}
50 км 8/3 600 м
[Sc diur, vesp Ac lent Cc]
+11.6 +2.0 52 +10 +10 1009.9 1001.5 +19.1 0.0
18 24.05 С 2 20 км 6/3 600 м
[Sc diur, vesp Ac trans Ci fib]
+8.0 +0.5 59 +6 +6 1011.8 1003.3
21 24.05 СВ 1 20 км 10/4 600 м
[Sc diur, vesp Ac cast Ci fib]
+6.6 -0.6 60 +6 +6 1012.4 1003.8
00 25.05 З 1 50 км 10/3 600 м
[Sc Ac cast Cc]
+4.1 +0.1 75 +3 +3 1013.2 1004.5
03 25.05 С 3 50 км 10/9 600 м
[Sc Ci fib]
+6.2 +0.9 69 +3 +4 1013.3 1004.7 +3.3
06 25.05 З 1 50 км 10/10 600 м
[Sc]
+9.2 0.0 53 +9 +9 1013.3 1004.8
09 25.05 СЗ 5 50 км 8/8 600 м
[Cu Sc]
+10.1 -2.7 41 +8 +9 1013.3 1004.8
12 25.05 С 5 50 км 10/10 600 м
[Sc]
+9.8 -3.2 40 +7 +7 1014.2 1005.7

 

Местоположение метеостанции Леуши (Ханты-Мансийский АО, Россия): широта 59.63 долгота 65.72 высота над уровнем моря 72 м.

В архиве по умолчанию представлена погода в Леушах за последнюю неделю. Архивные данные за месяц целиком и за предыдущие месяцы, начиная с января 2011 года, Вы можете получить, выбрав интересующий диапазон дат из раскрывающегося списка и нажав кнопку "Ввод!".


*Определитесь, кто Вы:
робот инопланетянин человек

Внимание! Время в таблицах - всемирное. Для получения местного времени необходимо прибавить поправку, которая в Леушах равна 5 ч.

Смотрите также архив погоды в соседних городах и на ближайших метеорологических станциях:

Погода в Кондинском (Ханты-Мансийский АО, Россия) (96 км)
Погода в Куминской (Ханты-Мансийский АО, Россия) (103 км)
Погода в Шаиме (Ханты-Мансийский АО, Россия) (113 км)
Погода в Таборах (Свердловская область, Россия) (141 км)
Погода в Тавде (Свердловская область, Россия) (175 км)
Погода в Увате (Тюменская область, Россия) (188 км)
Погода в Гари (Свердловская область, Россия) (192 км)
Погода в Алтае (Ханты-Мансийский АО, Россия) (197 км)
Погода в Демьянском (Тюменская область, Россия) (200 км)
Погода в Туринске (Свердловская область, Россия) (211 км)

Пояснения к столбцам:

Ветер - указаны скорость ветра в м/с - средняя за 10 мин, порывы в срок и между сроками (в фигурных скобках) и направление, откуда дует ветер: С - северный, СВ - северо-восточный, В - восточный, ЮВ - юго-восточный, Ю - южный, ЮЗ - юго-западный, З - западный, СЗ - северо-западный.
Видимость - горизонтальная дальность видимости в метрах или километрах. При видимости от 1 до 10 км при отсутствии осадков обычно наблюдается дымка, при ухудшении видимости до 1 км и менее - туман. В сухую погоду видимость может ухудшаться дымом, пылью или мглою.
Явления - указаны атмосферные явления, наблюдавшиеся в срок или в последний час перед сроком; фигурными скобками обозначены явления, наблюдавшиеся между сроками (за 1-3 часа до срока); квадратными скобками обозначены град или гололедные отложения с указанием их диаметра в мм.
Облачность - указаны через наклонную черту общая и нижняя облачность в баллах и высота нижней границы облаков в метрах; квадратными скобками обозначены формы облаков: Ci - перистые, Cs - перисто-слоистые, Cc - перисто-кучевые, Ac - высококучевые, As - высокослоистые, Sc - слоисто-кучевые, Ns - слоисто-дождевые, Cu - кучевые, Cb - кучево-дождевые. Подробнее классификацию облаков см. в Атласе облаков (PDF).
T - Температура воздуха - температура, измеренная на высоте 2 м над землей.
Td - Температура точки росы - температура, при понижении до которой содержащийся в воздухе водяной пар достигнет насыщения.
f - Относительная влажность воздуха - влажноcть воздуха, измеренная на высоте 2 м над землей.
Te - Эффективная температура - температура, которую ощущает одетый по сезону человек в тени. Характеристика душности погоды. При расчете учитывается влияние влажности воздуха и скорости ветра на теплоощущения человека.
Tes - Эффективная температура на солнце - температура, которую ощущает человек, с поправкой на солнечный нагрев. Характеристика знойности погоды. Зависит от высоты солнца над горизонтом, облачности и скорости ветра. Ночью, в пасмурную погоду, а также при ветре 12 м/с и более поправка равна нулю.
P - Атмосферное давление - приведенное к уровню моря атмосферное давление.
Po - Атмосферное давление - измеренное на уровне метеостанции атмосферное давление.
Tmin - Минимальная температура - минимум температуры воздуха на высоте 2 м над землей.
Tmax - Максимальная температура - максимум температуры воздуха на высоте 2 м над землей.
R - Количество осадков - Количество выпавших осадков за период времени, мм. При наведении курсора мыши на число - период времени, за который выпало указанное количество осадков.
R24 - Количество осадков - Количество выпавших осадков за 24 часа, мм.
S - Снежный покров - Высота снежного покрова, см. При наведении курсора мыши на число - состояние снежного покрова и степень покрытия местности в баллах.